When you browse on this site, cookies collect data to enhance your experience and personalize the content and advertising you see.
Visit our Privacy Policy to learn more. By continuing to use the site, you agree to this use of cookies and data.
  • In Hungary
  • List of Countries
  • For 7 days
  • Water Temperature
  • Weather Map
  • News
  • Weather Widgets
  • user-avatar
    Login

    Hourly Weather Yolombo

    Today, 6 December, Friday

    Time Temperature Precipitation Wind Pressure Humidity
    00:00 +18°C° 0.2 mm 1 mps 641 mmHg 97%
    01:00 +18°C° 0 mm 1 mps 641 mmHg 97%
    02:00 +16°C° 0.1 mm 1 mps 641 mmHg 97%
    03:00 +16°C° 0.1 mm 1 mps 641 mmHg 97%
    04:00 +16°C° 0.1 mm 1 mps 641 mmHg 97%
    05:00 +16°C° 0 mm 1 mps 641 mmHg 96%
    06:00 +18°C° 0 mm 1 mps 642 mmHg 96%
    07:00 +18°C° 0 mm 1 mps 643 mmHg 95%
    08:00 +21°C° 0 mm 1 mps 643 mmHg 84%
    09:00 +23°C° 0 mm 1 mps 644 mmHg 73%
    10:00 +26°C° 0 mm 1 mps 645 mmHg 62%
    11:00 +26°C° 0.5 mm 1 mps 644 mmHg 66%
    12:00 +26°C° 0.5 mm 1 mps 643 mmHg 69%
    13:00 +26°C° 0.5 mm 1 mps 643 mmHg 73%
    14:00 +25°C° 1 mm 1 mps 642 mmHg 79%
    15:00 +24°C° 1 mm 1 mps 641 mmHg 86%
    16:00 +23°C° 1 mm 1 mps 641 mmHg 93%
    17:00 +22°C° 1.4 mm 1 mps 641 mmHg 95%
    18:00 +18°C° 1.4 mm 0 mps 641 mmHg 97%
    19:00 +17°C° 1.4 mm 0 mps 641 mmHg 98%
    20:00 +19°C° 1.3 mm 1 mps 642 mmHg 98%
    21:00 +19°C° 1.3 mm 1 mps 642 mmHg 98%
    22:00 +18°C° 1.3 mm 1 mps 643 mmHg 98%
    23:00 +18°C° 0.3 mm 1 mps 642 mmHg 98%

    Tomorrow, 7 December, Saturday

    Time Temperature Precipitation Wind Pressure Humidity
    00:00 +18°C° 0.3 mm 1 mps 642 mmHg 98%
    01:00 +16°C° 0.3 mm 1 mps 642 mmHg 97%
    02:00 +16°C° 0 mm 1 mps 641 mmHg 97%
    03:00 +16°C° 0 mm 1 mps 641 mmHg 97%
    04:00 +15°C° 0 mm 1 mps 641 mmHg 97%
    05:00 +16°C° 0 mm 1 mps 641 mmHg 96%
    06:00 +16°C° 0 mm 1 mps 642 mmHg 96%
    07:00 +16°C° 0 mm 1 mps 642 mmHg 95%
    08:00 +20°C° 0.1 mm 1 mps 643 mmHg 86%
    09:00 +22°C° 0.1 mm 1 mps 644 mmHg 77%
    10:00 +25°C° 0.1 mm 1 mps 645 mmHg 68%
    11:00 +25°C° 0.2 mm 1 mps 644 mmHg 66%
    12:00 +26°C° 0.2 mm 1 mps 644 mmHg 65%
    13:00 +26°C° 0.2 mm 2 mps 643 mmHg 64%
    14:00 +25°C° 0.9 mm 1 mps 642 mmHg 73%
    15:00 +24°C° 0.9 mm 1 mps 642 mmHg 83%
    16:00 +21°C° 0.9 mm 0 mps 641 mmHg 92%
    17:00 +19°C° 0.4 mm 0 mps 641 mmHg 94%
    18:00 +18°C° 0.4 mm 0 mps 641 mmHg 96%
    19:00 +17°C° 0.4 mm 0 mps 641 mmHg 99%
    20:00 +18°C° 0.4 mm 1 mps 641 mmHg 98%
    21:00 +18°C° 0.4 mm 1 mps 642 mmHg 98%
    22:00 +18°C° 0.4 mm 1 mps 642 mmHg 98%
    23:00 +16°C° 0.1 mm 1 mps 642 mmHg 98%

    Day after tomorrow, 8 December, Sunday

    Time Temperature Precipitation Wind Pressure Humidity
    00:00 +16°C° 0.1 mm 1 mps 641 mmHg 97%
    01:00 +15°C° 0.1 mm 1 mps 641 mmHg 97%
    02:00 +15°C° 0 mm 1 mps 641 mmHg 96%
    03:00 +15°C° 0 mm 1 mps 641 mmHg 96%
    04:00 +15°C° 0 mm 1 mps 641 mmHg 95%
    05:00 +16°C° 0 mm 1 mps 641 mmHg 95%
    06:00 +16°C° 0 mm 1 mps 642 mmHg 94%
    07:00 +16°C° 0 mm 1 mps 642 mmHg 93%
    08:00 +19°C° 0.2 mm 1 mps 643 mmHg 86%
    09:00 +22°C° 0.2 mm 1 mps 644 mmHg 78%
    10:00 +24°C° 0.2 mm 1 mps 644 mmHg 71%
    11:00 +24°C° 0.5 mm 1 mps 644 mmHg 74%
    12:00 +24°C° 0.5 mm 1 mps 643 mmHg 77%
    13:00 +24°C° 0.5 mm 1 mps 642 mmHg 80%
    14:00 +23°C° 0.7 mm 1 mps 642 mmHg 83%
    15:00 +23°C° 0.7 mm 1 mps 641 mmHg 86%
    16:00 +22°C° 0.7 mm 1 mps 641 mmHg 89%
    17:00 +21°C° 0.6 mm 1 mps 641 mmHg 92%
    18:00 +18°C° 0.6 mm 0 mps 641 mmHg 95%
    19:00 +17°C° 0.6 mm 0 mps 641 mmHg 99%
    20:00 +18°C° 0.6 mm 1 mps 641 mmHg 98%
    21:00 +18°C° 0.6 mm 1 mps 642 mmHg 98%
    22:00 +18°C° 0.6 mm 1 mps 642 mmHg 98%
    23:00 +16°C° 0.1 mm 1 mps 642 mmHg 98%

    9 December, Monday

    Time Temperature Precipitation Wind Pressure Humidity
    00:00 +16°C° 0.1 mm 1 mps 641 mmHg 97%
    01:00 +15°C° 0.1 mm 1 mps 641 mmHg 97%
    02:00 +15°C° 0 mm 1 mps 641 mmHg 96%
    03:00 +15°C° 0 mm 1 mps 640 mmHg 96%
    04:00 +15°C° 0 mm 1 mps 640 mmHg 95%
    05:00 +15°C° 0 mm 1 mps 641 mmHg 95%
    06:00 +15°C° 0 mm 1 mps 641 mmHg 94%
    07:00 +15°C° 0 mm 1 mps 641 mmHg 93%
    08:00 +19°C° 0 mm 1 mps 642 mmHg 82%
    09:00 +22°C° 0 mm 1 mps 643 mmHg 71%
    10:00 +25°C° 0 mm 1 mps 644 mmHg 60%
    11:00 +25°C° 0 mm 1 mps 643 mmHg 58%
    12:00 +26°C° 0 mm 1 mps 643 mmHg 57%
    13:00 +26°C° 0 mm 2 mps 642 mmHg 55%
    14:00 +25°C° 0.3 mm 2 mps 641 mmHg 65%
    15:00 +24°C° 0.3 mm 1 mps 641 mmHg 75%
    16:00 +23°C° 0.3 mm 1 mps 640 mmHg 84%
    17:00 +21°C° 0.3 mm 1 mps 640 mmHg 89%
    18:00 +18°C° 0.3 mm 0 mps 640 mmHg 93%
    19:00 +17°C° 0.3 mm 0 mps 640 mmHg 98%
    20:00 +17°C° 0.1 mm 0 mps 640 mmHg 98%
    21:00 +16°C° 0.1 mm 0 mps 641 mmHg 98%
    22:00 +18°C° 0.1 mm 1 mps 641 mmHg 98%
    23:00 +18°C° 0 mm 1 mps 641 mmHg 98%

    10 December, Tuesday

    Time Temperature Precipitation Wind Pressure Humidity
    00:00 +16°C° 0 mm 1 mps 640 mmHg 98%
    01:00 +16°C° 0 mm 1 mps 640 mmHg 98%
    02:00 +15°C° 0 mm 1 mps 640 mmHg 98%
    03:00 +15°C° 0 mm 1 mps 640 mmHg 97%
    04:00 +15°C° 0 mm 1 mps 640 mmHg 97%
    05:00 +15°C° 0 mm 1 mps 640 mmHg 96%
    06:00 +15°C° 0 mm 1 mps 641 mmHg 96%
    07:00 +16°C° 0 mm 1 mps 641 mmHg 95%
    08:00 +19°C° 0 mm 1 mps 642 mmHg 84%
    09:00 +22°C° 0 mm 1 mps 643 mmHg 74%
    10:00 +25°C° 0 mm 1 mps 644 mmHg 63%
    11:00 +25°C° 0.1 mm 1 mps 643 mmHg 64%
    12:00 +25°C° 0.1 mm 2 mps 642 mmHg 65%
    13:00 +25°C° 0.1 mm 2 mps 642 mmHg 66%
    14:00 +24°C° 0.6 mm 2 mps 641 mmHg 74%
    15:00 +23°C° 0.6 mm 1 mps 640 mmHg 82%
    16:00 +23°C° 0.6 mm 1 mps 639 mmHg 90%
    17:00 +21°C° 0.6 mm 1 mps 640 mmHg 93%
    18:00 +20°C° 0.6 mm 1 mps 640 mmHg 96%
    19:00 +17°C° 0.6 mm 0 mps 640 mmHg 99%
    20:00 +18°C° 0.6 mm 1 mps 641 mmHg 98%
    21:00 +18°C° 0.6 mm 1 mps 641 mmHg 98%
    22:00 +18°C° 0.6 mm 1 mps 641 mmHg 98%
    23:00 +18°C° 0.1 mm 1 mps 641 mmHg 98%

    11 December, Wednesday

    Time Temperature Precipitation Wind Pressure Humidity
    00:00 +16°C° 0.1 mm 1 mps 641 mmHg 98%
    01:00 +16°C° 0.1 mm 1 mps 641 mmHg 98%
    02:00 +16°C° 0 mm 1 mps 640 mmHg 98%
    03:00 +15°C° 0 mm 1 mps 640 mmHg 98%
    04:00 +15°C° 0 mm 1 mps 640 mmHg 98%
    05:00 +15°C° 0 mm 1 mps 640 mmHg 97%
    06:00 +16°C° 0 mm 1 mps 641 mmHg 97%
    07:00 +16°C° 0 mm 1 mps 641 mmHg 96%
    08:00 +20°C° 0 mm 1 mps 642 mmHg 85%
    09:00 +22°C° 0 mm 1 mps 643 mmHg 74%
    10:00 +25°C° 0 mm 1 mps 644 mmHg 63%
    11:00 +25°C° 0.2 mm 1 mps 644 mmHg 66%
    12:00 +24°C° 0.2 mm 1 mps 643 mmHg 70%
    13:00 +24°C° 0.2 mm 1 mps 642 mmHg 73%
    14:00 +23°C° 0.6 mm 1 mps 641 mmHg 79%
    15:00 +23°C° 0.6 mm 1 mps 640 mmHg 85%
    16:00 +22°C° 0.6 mm 1 mps 640 mmHg 92%
    17:00 +21°C° 0.2 mm 1 mps 640 mmHg 94%
    18:00 +18°C° 0.2 mm 0 mps 640 mmHg 96%
    19:00 +17°C° 0.2 mm 0 mps 640 mmHg 98%
    20:00 +18°C° 0.3 mm 1 mps 641 mmHg 98%
    21:00 +18°C° 0.3 mm 1 mps 641 mmHg 98%
    22:00 +18°C° 0.3 mm 1 mps 641 mmHg 98%
    23:00 +16°C° 0 mm 1 mps 641 mmHg 98%
    Show more